Hourly Data Report for October 02, 2014

All times are specified in Local Standard Time (LST). Add 1 hour to adjust for Daylight Saving Time where and when it is observed.

WINNIPEG A CS
MANITOBA

49°55'00.000" N
97°14'58.000" W
238.70 m
502S001
71849
XWG

Download Data

Hourly Data (October 2014)
Hourly Data Report for October 2, 2014
Temp Definition
°C
Dew Point Temp Definition
°C
Rel Hum Definition
%
Wind Dir Definition
10's deg

Wind Spd Definition
km/h
Visibility Definition
km
Stn Press Definition
kPa
Hmdx Definition


Wind Chill Definition


Weather Definition


TIME
00:00 12.3 8.5 78 27 14   97.68     LegendNANA
01:00 10.8 7.6 81 27 15   97.74     LegendNANA
02:00 9.8 7.4 85 24 11   97.80     LegendNANA
03:00 9.7 7.3 85 25 14   97.81     LegendNANA
04:00 8.8 7.0 89 26 16   97.85     LegendNANA
05:00 7.4 6.1 92 27 14   97.89     LegendNANA
06:00 6.0 5.0 94 26 12   97.93     LegendNANA
07:00 6.0 5.2 94 26 12   97.96     LegendNANA
08:00 8.2 6.4 89 26 13   97.94     LegendNANA
09:00 10.4 7.0 79 27 12   97.97     LegendNANA
10:00 12.2 7.9 75 26 11   97.94     LegendNANA
11:00 14.6 6.8 59 25 11   97.91     LegendNANA
12:00 15.7 5.4 50 22 11   97.87     LegendNANA
13:00 17.0 5.0 45 17 9   97.78     LegendNANA
14:00 17.6 5.5 45 22 12   97.74     LegendNANA
15:00 17.0 4.0 42 22 8   97.69     LegendNANA
16:00 15.7 6.3 54 20 22   97.66     LegendNANA
17:00 14.4 6.4 59 19 16   97.63     LegendNANA
18:00 13.4 6.7 64 18 20   97.62     LegendNANA
19:00 11.0 8.2 83 27 29   97.67     LegendNANA
20:00 9.8 8.4 91 28 31   97.77     LegendNANA
21:00 8.7 7.6 93 29 30   97.83     LegendNANA
22:00 8.1 6.1 87 31 33   97.93     LegendNANA
23:00 6.9 4.2 83 33 40   97.97     LegendNANA

Notes on Data Quality.

Legend

  • E = Estimated
  • M = Missing
  • NA = Not Available
  • ‡ = Partner data that is not subject to review by the National Climate Archives
Date modified: